Location: Strathcona Wilderness Centre
(53.5370°N, 113.0082°W)
Time: 18:54:20
(UTC-07:00)

Envisat - Visible Passes

Search period start: 18 February 2018 00:00
Search period end: 28 February 2018 00:00
Orbit: 764 x 766 km, 98.2° (Epoch: 18 February)

Date Brightness Start Highest point End Pass type
(mag) Time Alt. Az. Time Alt. Az. Time Alt. Az.
18 Feb 3.6 18:50:10 10° SE 18:54:47 36° ENE 18:59:25 10° N visible
18 Feb 4.1 20:28:57 10° SSW 20:33:46 42° W 20:38:37 10° NNW visible
19 Feb 3.0 19:51:49 10° SSE 19:56:54 80° WSW 20:02:01 10° NNW visible
19 Feb 5.8 21:34:03 10° WSW 21:36:46 14° W 21:39:31 10° NW visible
20 Feb 3.1 19:15:17 10° SE 19:20:14 55° ENE 19:25:12 10° N visible
20 Feb 4.9 20:55:17 10° SSW 20:59:34 27° W 21:03:54 10° NW visible
21 Feb 3.8 18:39:18 10° ESE 18:43:44 31° ENE 18:48:09 10° N visible
21 Feb 3.8 20:17:38 10° S 20:22:34 51° W 20:27:33 10° NNW visible
22 Feb 2.9 19:40:41 10° SSE 19:45:45 85° ENE 19:50:53 10° NNW visible
22 Feb 5.6 21:22:07 10° SW 21:25:29 17° W 21:28:51 10° NW visible
23 Feb 3.3 19:04:19 10° SE 19:09:08 46° ENE 19:14:00 10° N visible
23 Feb 4.6 20:43:47 10° SSW 20:48:20 33° W 20:52:55 10° NNW visible
24 Feb 3.5 20:06:22 10° S 20:11:23 62° WSW 20:16:27 10° NNW visible
24 Feb 6.0 21:50:19 10° W 21:51:29 11° W 21:52:40 10° WNW visible
25 Feb 2.9 19:29:35 10° SSE 19:34:38 71° ENE 19:39:43 10° NNW visible
25 Feb 5.3 21:10:23 10° SW 21:14:12 21° W 21:18:02 10° NW visible
26 Feb 3.5 18:53:23 10° SE 18:58:04 39° ENE 19:02:46 10° N visible
26 Feb 4.3 20:32:22 10° SSW 20:37:06 39° W 20:41:53 10° NNW visible
27 Feb 3.2 19:55:09 10° S 20:00:13 75° WSW 20:05:20 10° NNW visible
27 Feb 5.8 21:37:45 10° WSW 21:40:09 13° W 21:42:35 10° NW visible
